Location: Kotta Ibr?h?mpatnam
(16.5979°N, 80.5137°E)
Time: 21:03:26
(UTC+00:00)

Daily predictions for brighter satellites

Satellite Brightness Start Highest point End
(mag) Time Altitude Azimuth Time Altitude Azimuth Time Altitude Azimuth
Cosmos 1025 Rocket 3.2 12:55:21 10° S 12:59:36 80° W 13:03:52 10° N
GPS 2-12 Rocket1 3.1 12:56:28 10° WNW 13:00:55 69° N 13:05:28 10° E
Cosmos 2333 4.4 12:57:14 10° NNW 13:02:49 81° WSW 13:08:23 10° SSE
Gbstr 26 Del rocket 4.1 12:57:17 10° SSW 13:02:59 57° ESE 13:09:52 10° NE
Cosmos 2233 Rocket 4.2 13:00:04 10° N 13:06:09 50° E 13:12:13 10° SSE
COSMO-SKYMED 1 3.2 13:02:53 10° N 13:06:55 58° WNW 13:10:56 10° SSW
Cosmos 1725 Rocket 4.1 13:04:28 10° N 13:10:44 89° W 13:17:03 10° S
Cosmos 2360 Rocket 3.6 13:10:51 10° NW 13:16:08 43° WSW 13:21:26 10° S
Milstar 3 3.6 13:08:44 10° WNW 13:16:12 68° NNE 13:29:20 10° ESE
CZ-2D R/B 3.5 13:12:53 10° SSE 13:16:32 46° ENE 13:20:15 10° N
SL-08 R/B 4.4 13:11:30 10° N 13:17:35 80° E 13:23:39 10° S
GOES 2 Rocket 4.0 13:15:33 10° W 13:19:24 36° NNW 13:23:09 12° NE
Atlas Centaur 2 4.0 13:12:55 10° WNW 13:19:25 29° NNW 13:25:06 10° NE
Cosmos 2061 Rocket 4.1 13:14:01 10° N 13:20:13 58° E 13:26:20 10° SSE
BREEZE-M DEB (TANK) 4.0 13:21:53 10° W 13:23:49 20° NNW 13:27:02 10° NNE
Meteor 2-1 Rocket 4.3 13:27:51 10° N 13:33:40 63° E 13:39:31 10° SSE
CZ-3 Stage 3 3.2 13:16:53 10° WNW 13:33:46 58° NNE 13:37:19 21° E
Palapa 6 Rocket 4.2 13:27:54 10° WNW 13:33:59 57° N 13:38:52 21° E
Cosmos 2297 Rocket 3.7 13:28:59 10° SW 13:34:07 36° WNW 13:39:18 10° N
Delta 198 4.4 13:29:36 10° WSW 13:35:52 77° NNW 13:40:15 21° ENE
CARTOSAT-1 3.4 13:32:09 10° SSE 13:36:17 61° ENE 13:40:25 10° N
Cosmos 1315 Rocket 3.7 13:37:10 10° NNW 13:40:50 49° W 13:44:30 10° S
Cosmos 2219 4.2 13:39:51 10° SSE 13:44:21 24° ESE 13:44:47 24° E
ATLAS 3B R/B 3.9 13:39:44 10° NW 13:46:41 46° WSW 13:53:08 10° S
CRYOSAT 2 4.4 13:43:59 10° N 13:48:51 79° W 13:53:42 10° S
Cosmos 1975 Rocket 2.9 13:48:10 10° S 13:52:34 86° E 13:56:56 10° N
NOAA 6 4.0 13:48:03 10° SSE 13:53:10 89° WSW 13:58:19 10° NNW
Meteor 2-17 Rocket 4.5 13:47:43 10° S 13:53:48 82° W 13:59:53 10° N
Cosmos 1346 Rocket 2.5 13:51:07 10° S 13:54:39 58° E 13:55:01 54° ENE
Helios 1A Rocket 4.0 13:51:53 10° N 13:54:50 33° WNW 13:57:48 10° SW
SL-19 R/B 4.5 13:48:48 10° SSE 13:55:07 85° ENE 14:01:19 10° NNW
Spot 4 Rocket 4.4 13:50:30 10° S 13:55:32 64° WSW 14:00:36 10° NNW
USA 234 3.2 13:49:42 10° SE 13:56:14 81° NE 14:02:47 10° NW
YAOGAN 1 4.3 13:53:42 10° SSW 13:57:31 33° W 14:01:21 10° NW
BlueWalker 3 2.2 13:55:02 10° NNW 13:57:48 43° NNE 13:57:48 43° NNE
FALCON 9 R/B 4.4 13:50:49 10° WNW 14:00:11 81° NNE 14:45:30 10° ESE
Cosmos 1602 4.3 14:00:18 10° SSW 14:02:55 38° W 14:03:50 28° NW
Cosmos 1125 Rocket 3.6 13:57:56 10° N 14:02:56 48° ENE 14:04:40 35° SE
Cosmos 783 Rocket 4.4 13:59:39 10° S 14:04:55 80° ESE 14:08:15 23° NNE
Meteor 1-27 4.3 13:59:19 10° N 14:05:00 55° E 14:10:40 10° SSE
Cosmos 2263 Rocket 2.0 14:02:15 10° SSW 14:07:52 82° ESE 14:11:17 25° NNE
Cosmos 1455 Rocket 2.8 14:05:19 10° N 14:09:35 74° E 14:13:53 10° S
SeaSat 1 4.5 14:06:15 10° SSW 14:10:23 28° WSW 14:14:31 10° NW
Ariane H10+ 3.9 14:06:30 10° SW 14:10:27 24° S 14:13:42 18° SE
Aureole 3 Rocket 3.3 14:11:10 10° NNW 14:14:11 43° W 14:17:04 10° SSW
COSMOS 2428 2.7 14:09:12 10° NNW 14:14:55 86° WSW 14:20:37 10° SSE
Cosmos 2082 4.5 14:10:25 10° S 14:14:14 34° SE 14:14:14 34° SE
Resurs 01 Rocket 2.4 14:12:29 10° S 14:16:43 52° W 14:20:59 10° NNW
Cosmos 2237 Rocket 4.3 14:19:30 10° N 14:20:09 13° N 14:20:09 13° N
ATLAS 5 CENTAUR R/B 2.8 14:25:47 10° NW 14:31:10 58° WSW 14:37:35 10° SSE
Cosmos 2227 Rocket 4.1 14:28:25 10° SW 14:33:04 27° WNW 14:37:46 10° NNW
USA 215 4.4 14:41:17 27° SSE 14:41:17 27° SSE 14:44:45 10° S
Cosmos 2285 Rocket 4.0 14:34:03 10° NNW 14:40:26 79° WSW 14:46:45 10° S
GPS 2-12 Rocket1 4.3 14:39:16 10° W 14:42:16 38° WSW 14:42:16 38° WSW
Atlas Centaur 2 4.3 15:04:01 10° NW 15:07:08 20° NNW 15:07:08 20° NNW
COSMOS 2455 4.3 22:26:42 32° ENE 22:26:42 32° ENE 22:30:28 10° NE
MAQSAT/ARIANE V 4.4 22:30:56 29° SSE 22:30:56 29° SSE 22:40:22 10° ESE
CZ-4C R/B 3.3 22:34:12 71° S 22:34:12 71° S 22:42:18 10° SSE
Aurora 2 Rocket 4.2 22:55:51 39° NNE 22:55:51 39° NNE 23:01:00 10° ENE
GPS 2-17 Rocket1 4.3 23:05:27 37° ENE 23:05:27 37° ENE 23:08:11 10° E
SL-16 R/B 3.0 23:02:00 10° S 23:06:13 44° SSW 23:06:13 44° SSW
SL-08 R/B 4.4 23:07:39 10° S 23:13:58 88° W 23:20:25 10° N
Cosmos 1934 Rocket 3.8 23:21:44 10° S 23:27:46 89° ENE 23:33:52 10° N
Cosmos 1727 Rocket 3.8 23:27:39 10° N 23:33:51 79° W 23:40:05 10° S
ATLAS 2A CENTAUR R/B 3.3 23:32:54 38° NW 23:34:41 51° N 23:38:05 10° E
ISS -4.0 23:47:38 68° WSW 23:47:59 82° NW 23:51:19 10° NE
NOAA 12 4.1 23:47:34 10° N 23:52:42 54° WNW 23:57:50 10° SSW
